DW9558 Weather Reports


Display with metric or nautical units.
time (UTC)temp
F
wind
direction
speed
MPH
gust
MPH
rain 1hr
in
rain 24hr
in
rain mn
in
humidity
%
barometer
mb
20260503041528 58 294 2.0 8.0 0.00 0.00 0.00 71 1016.4
20260503040029 59 294 0.0 3.0 0.00 0.00 0.00 71 1016.3
20260503034528 59 294 0.0 8.0 0.00 0.00 0.00 70 1016.1
20260503033027 60 294 0.0 5.0 0.00 0.00 0.00 70 1016.1
20260503031527 61 294 1.0 5.0 0.00 0.00 0.00 70 1015.9
20260503030026 62 294 1.0 7.0 0.00 0.00 0.00 69 1015.8
20260503024526 62 294 1.0 4.0 0.00 0.00 0.00 69 1015.8
20260503023024 63 294 0.0 11.0 0.00 0.00 0.00 68 1015.8
20260503021524 64 296 1.0 4.0 0.00 0.00 0.00 66 1015.7
20260503020024 64 296 2.0 5.0 0.00 0.00 0.00 65 1015.6
20260503014523 65 296 3.0 8.0 0.00 0.00 0.00 64 1015.7
20260503013026 66 296 3.0 8.0 0.00 0.00 0.00 63 1015.7
20260503011524 67 296 2.0 7.0 0.00 0.00 0.00 63 1015.6
20260503010022 68 296 1.0 8.0 0.00 0.00 0.00 62 1015.6
20260503004522 68 296 1.0 7.0 0.00 0.00 0.00 62 1015.6
20260503003022 69 296 1.0 8.0 0.00 0.00 0.00 61 1015.5
20260503001520 69 296 1.0 7.0 0.00 0.00 0.00 59 1015.6
20260503000019 70 296 1.0 5.0 0.00 0.00 0.00 58 1015.7
20260502234517 70 296 0.0 8.0 0.00 0.00 0.00 60 1015.9
20260502233019 70 296 2.0 7.0 0.00 0.00 0.00 59 1016.0
20260502231516 70 296 1.0 5.0 0.00 0.00 0.00 58 1016.1
20260502230018 71 296 2.0 8.0 0.00 0.00 0.00 58 1016.3
20260502224511 71 296 2.0 8.0 0.00 0.00 0.00 58 1016.5
20260502223009 71 296 2.0 7.0 0.00 0.00 0.00 58 1016.6
20260502221506 70 296 2.0 7.0 0.00 0.00 0.00 60 1017.0
20260502220004 70 296 1.0 7.0 0.00 0.00 0.00 61 1017.1
20260502214502 69 296 1.0 5.0 0.00 0.00 0.00 62 1017.3
20260502213101 68 296 2.0 5.0 0.00 0.00 0.00 62 1017.4
20260502211605 68 296 1.0 8.0 0.00 0.00 0.00 64 1017.7
20260502210058 67 297 1.0 9.0 0.00 0.00 0.00 64 1017.8
20260502204554 67 297 1.0 9.0 0.00 0.00 0.00 66 1018.0
20260502203104 66 297 2.0 9.0 0.00 0.00 0.00 67 1018.1
20260502201550 64 298 1.0 7.0 0.00 0.00 0.00 70 1018.2
20260502200045 64 298 2.0 7.0 0.00 0.00 0.00 70 1018.4
20260502194542 62 298 2.0 8.0 0.00 0.00 0.00 74 1018.4
20260502193044 62 298 1.0 11.0 0.00 0.00 0.00 72 1018.6
20260502191541 63 298 3.0 10.0 0.00 0.00 0.00 72 1018.7
20260502190038 62 298 1.0 11.0 0.00 0.00 0.00 74 1018.6
20260502184535 61 298 3.0 5.0 0.00 0.00 0.00 75 1018.7
20260502183031 60 298 2.0 9.0 0.00 0.00 0.00 77 1018.8
20260502181528 59 298 2.0 9.0 0.00 0.00 0.00 79 1018.8
20260502163029 57 304 2.0 9.0 0.00 0.00 0.00 80 1018.5
20260502161519 58 305 1.0 6.0 0.00 0.00 0.00 79 1018.5
20260502151514 57 305 1.0 9.0 0.00 0.00 0.00 82 1017.9
20260502123052 53 306 1.0 7.0 0.00 0.00 0.00 86 1016.8
20260502121551 53 306 0.0 5.0 0.00 0.00 0.00 86 1016.7
20260502120104 54 306 2.0 5.0 0.00 0.00 0.00 85 1016.7
20260502114625 54 306 1.0 5.0 0.00 0.00 0.00 85 1016.7
20260502113049 54 306 0.0 4.0 0.00 0.00 0.00 84 1016.8
20260502111548 54 306 0.0 4.0 0.00 0.00 0.00 84 1016.9
20260502110048 54 306 1.0 7.0 0.00 0.00 0.00 83 1016.8
20260502104545 55 306 0.0 3.0 0.00 0.00 0.00 83 1016.8
20260502103044 55 306 1.0 5.0 0.00 0.00 0.00 82 1016.9
20260502101559 55 306 1.0 5.0 0.00 0.00 0.00 82 1017.0
20260502071523 59 306 0.0 4.0 0.00 0.00 0.00 78 1017.4
20260502070021 59 306 0.0 4.0 0.00 0.00 0.00 77 1017.3
20260502064537 60 306 0.0 2.0 0.00 0.00 0.00 76 1017.4
20260502063022 60 306 0.0 2.0 0.00 0.00 0.00 76 1017.2
20260502061518 61 306 0.0 1.0 0.00 0.00 0.00 76 1017.2
20260502060029 61 306 0.0 3.0 0.00 0.00 0.00 75 1017.2
20260502054516 62 306 1.0 6.0 0.00 0.00 0.00 75 1017.2
20260502053017 62 306 0.0 4.0 0.00 0.00 0.00 75 1017.2
20260502051516 63 306 0.0 6.0 0.00 0.00 0.00 74 1017.2
20260502050020 64 306 0.0 3.0 0.00 0.00 0.00 74 1017.2
20260502044515 65 306 0.0 5.0 0.00 0.00 0.00 73 1017.0
20260502043015 66 306 3.0 8.0 0.00 0.00 0.00 71 1016.9